"Pseudo-MPEC" for P225iTd

Created 2025 Jan 22 23:31:17 UT using Find_Orb

Click here for an explanation of pseudo-MPECs

 
 Astrometry: 
     P225iTd* C2025 01 06.57277312 48 30.498+13 51 54.12   ~16Kl 21.81wXNEOCPF52
     P225iTd  C2025 01 06.59434712 48 28.226+13 51 28.34   ~16Kl 22.20wXNEOCPF52
     P225iTd  C2025 01 06.60520612 48 27.104+13 51 15.76   ~16Kl 22.04wXNEOCPF52

Station data:
(F52) Pan-STARRS 2, Haleakala  (N20.707382 W156.255910)  US/Hawaii.
   Observers J. Bulger, T. Dukes, T. Lowe, A. Schultz, M. Willman. Measurers
   K. Chambers, S. Chastel, T. de Boer, L. Denneau, J. Fairlamb, H.
   Flewelling, M. Huber, C.-C. Lin, E. Magnier, Y. Ramanjooloo, R. Wainscoat,
   R. Weryk. 1.8-m Ritchey-Chrétien + CCD.

Orbital elements:  P225iTd
   Perihelion 2025 Apr 13.99205 +/- 88.6 TT = 23:48:33 (JD 2460779.49205)
Epoch 2025 Jan  7.0 TT = JDT 2460682.5   Earth MOID: 0.1310   Me: 0.0265
M 236.93007758 +/- 90               (J2000 ecliptic)             AutoNEOCP
n   1.26886605 +/- 0.873            Peri.  331.10405 +/- 80
a   0.84500418 +/- 0.388            Node   310.24752 +/- 23
e   0.5450767 +/- 0.207             Incl.  101.22169 +/- 40
P   0.777/283.713d         H 20.81  G  0.15   U 12.7  SR
q 0.38441202 +/- 0.485    Q 1.30559635 +/- 22.5
From 3 observations 2025 Jan. 6 (46.7 min); mean residual 0".13
Residuals in arcseconds: 
250106 F52  .06+  .06+    250106 F52  .17-  .19-    250106 F52  .11+  .12+    

Ephemerides (geocentric):
Date (UTC) HH   RA             Dec           delta  r     elong  mag " sig PA
---- --------  ------------   ------------  ------ ------ -----  --- --------
2025 01 23 00  11 12 20.592   -01 20 11.34  .19400 1.1256 133.0 19.1  69d  99
2025 01 23 01  11 11 38.654   -01 26 29.46  .19326 1.1254 133.2 19.1  69d  99
2025 01 23 02  11 10 56.382   -01 32 50.37  .19252 1.1251 133.3 19.1  69d  99
2025 01 23 03  11 10 13.772   -01 39 14.09  .19178 1.1249 133.5 19.0  69d  99
2025 01 23 04  11 09 30.823   -01 45 40.63  .19105 1.1246 133.6 19.0  69d  99
2025 01 23 05  11 08 47.530   -01 52 10.01  .19032 1.1243 133.7 19.0  69d  99
2025 01 23 06  11 08 03.891   -01 58 42.25  .18959 1.1241 133.9 19.0  69d  99
2025 01 23 07  11 07 19.902   -02 05 17.37  .18887 1.1238 134.0 19.0  69d  99
2025 01 23 08  11 06 35.560   -02 11 55.37  .18814 1.1236 134.2 19.0  69d  99
2025 01 23 09  11 05 50.863   -02 18 36.29  .18742 1.1233 134.3 19.0  69d  99
2025 01 23 10  11 05 05.806   -02 25 20.13  .18671 1.1231 134.5 19.0  69d  99
2025 01 23 11  11 04 20.388   -02 32 06.91  .18599 1.1228 134.6 18.9  69d  99
2025 01 23 12  11 03 34.604   -02 38 56.65  .18528 1.1226 134.8 18.9  69d  99
2025 01 23 13  11 02 48.451   -02 45 49.37  .18457 1.1223 134.9 18.9  69d  99
2025 01 23 14  11 02 01.926   -02 52 45.07  .18387 1.1221 135.1 18.9  69d  99
2025 01 23 15  11 01 15.027   -02 59 43.77  .18317 1.1218 135.2 18.9  69d  99
2025 01 23 16  11 00 27.748   -03 06 45.50  .18247 1.1215 135.4 18.9  69d  99
2025 01 23 17  10 59 40.088   -03 13 50.25  .18177 1.1213 135.5 18.9  69d  99
2025 01 23 18  10 58 52.044   -03 20 58.05  .18108 1.1210 135.7 18.9  69d  99
2025 01 23 19  10 58 03.610   -03 28 08.91  .18039 1.1208 135.8 18.9  69d  99
2025 01 23 20  10 57 14.785   -03 35 22.84  .17970 1.1205 135.9 18.8  69d  99
2025 01 23 21  10 56 25.565   -03 42 39.86  .17901 1.1203 136.1 18.8  69d  99
2025 01 23 22  10 55 35.947   -03 49 59.98  .17833 1.1200 136.2 18.8  69d  99
2025 01 23 23  10 54 45.927   -03 57 23.20  .17766 1.1197 136.4 18.8  69d  99
2025 01 24 00  10 53 55.502   -04 04 49.55  .17698 1.1195 136.5 18.8  69d  99
2025 01 24 01  10 53 04.668   -04 12 19.02  .17631 1.1192 136.7 18.8  69d  99
2025 01 24 02  10 52 13.422   -04 19 51.64  .17564 1.1190 136.8 18.8  69d  99
2025 01 24 03  10 51 21.762   -04 27 27.41  .17498 1.1187 137.0 18.8  69d  99
2025 01 24 04  10 50 29.682   -04 35 06.34  .17431 1.1185 137.1 18.7  69d  99
2025 01 24 05  10 49 37.180   -04 42 48.43  .17366 1.1182 137.3 18.7  69d  99
2025 01 24 06  10 48 44.253   -04 50 33.71  .17300 1.1179 137.4 18.7  69d  99
2025 01 24 07  10 47 50.897   -04 58 22.16  .17235 1.1177 137.6 18.7  69d  99
2025 01 24 08  10 46 57.109   -05 06 13.81  .17170 1.1174 137.7 18.7  69d  99
2025 01 24 09  10 46 02.884   -05 14 08.65  .17106 1.1172 137.8 18.7  69d  99
2025 01 24 10  10 45 08.221   -05 22 06.69  .17042 1.1169 138.0 18.7  69d  99
2025 01 24 11  10 44 13.115   -05 30 07.94  .16978 1.1166 138.1 18.7  69d  99
2025 01 24 12  10 43 17.563   -05 38 12.39  .16915 1.1164 138.3 18.7  69d  99
2025 01 24 13  10 42 21.562   -05 46 20.05  .16852 1.1161 138.4 18.6  69d  99
2025 01 24 14  10 41 25.108   -05 54 30.93  .16790 1.1159 138.6 18.6  69d  99
2025 01 24 15  10 40 28.197   -06 02 45.02  .16728 1.1156 138.7 18.6  69d  99
2025 01 24 16  10 39 30.827   -06 11 02.32  .16666 1.1153 138.8 18.6  69d  99
2025 01 24 17  10 38 32.994   -06 19 22.84  .16604 1.1151 139.0 18.6  69d  99
2025 01 24 18  10 37 34.695   -06 27 46.56  .16543 1.1148 139.1 18.6  69d  99
2025 01 24 19  10 36 35.927   -06 36 13.49  .16483 1.1146 139.3 18.6  69d  99
2025 01 24 20  10 35 36.685   -06 44 43.62  .16423 1.1143 139.4 18.6  69d  99
2025 01 24 21  10 34 36.967   -06 53 16.95  .16363 1.1140 139.5 18.6  69d  99
2025 01 24 22  10 33 36.770   -07 01 53.47  .16304 1.1138 139.7 18.5  69d  99
2025 01 24 23  10 32 36.089   -07 10 33.18  .16245 1.1135 139.8 18.5  69d  99